Regional Weather Roundup
Issued by NWS

Home | Current Version | Previous Version | Graphics & Text | Print | Product List | Glossary On
Versions: 1 2 3 4 5 6 7 8 9 10 11 12 13 14 15 16 17 18 19 20 21 22 23 24 25 26 27 28 29 30 31 32 33 34 35 36 37 38 39 40 41 42 43 44 45 46 47 48 49 50
000
ASUS43 KDTX 212301
RWRMI
MICHIGAN HOURLY REGIONAL WEATHER ROUNDUP
NATIONAL WEATHER SERVICE DETROIT/PONTIAC MI
600 PM EST TUE NOV 21 2017

NOTE: "FAIR" INDICATES FEW OR NO CLOUDS BELOW 12,000 FEET WITH NO
SIGNIFICANT WEATHER AND/OR OBSTRUCTION TO VISIBILITY.

MIZ047>049-052>055-059>063-066>070-074>076-081>083-220000-
SOUTHEAST LOWER MICHIGAN

CITY           SKY/WX    TMP DP  RH WIND       PRES   REMARKS
ADRIAN         LGT RAIN  39  35  86 W12G18    29.92R WCI  32
ALMA           CLOUDY    37  24  58 NW10      29.90R WCI  30
ANN ARBOR      LGT RAIN  39  36  89 SW14G23   29.88R WCI  31
BAD AXE        CLOUDY    39  32  75 W8        29.84R WCI  33
CARO           CLOUDY    38  30  74 W8        29.85R WCI  32
DETROIT CITY   LGT RAIN  43  38  82 W10       29.88R
DETROIT        LGT RAIN  43  38  82 SW15G24   29.89R
FLINT          CLOUDY    39  34  82 W13       29.87R WCI  31
GROSSE ILE     LGT RAIN  43  38  80 W18G26    29.88R
HILLSDALE      LGT RAIN  36  32  87 W8        29.89R WCI  29
HOWELL         CLOUDY    38  37  93 W8        29.87R WCI  32

CITY           SKY/WX    TMP DP  RH WIND       PRES   REMARKS
JACKSON        LGT RAIN  38  35  89 W10       29.90R WCI  31
LAMBERTVILLE   DRIZZLE   43  37  79 W7        29.91R
LANSING        CLOUDY    36  28  73 W10       29.90R WCI  28
LAPEER         CLOUDY    39  34  84 W6        29.85R WCI  35
MASON          CLOUDY    39  34  80 W12       29.89R WCI  32
MONROE         LGT RAIN  44  38  79 W14G20    29.89R
MT. CLEMENS    LGT RAIN  42  42  99 W15       29.85R FOG
PONTIAC        LGT RAIN  38  37  97 W12       29.85R WCI  30
PORT HOPE        N/A     41  27  57 W13       29.81R
PORT HURON     RAIN      37  34  87 W8G20     29.87R WCI  31
TRI CITIES     MOCLDY    38  25  59 NW14      29.88R WCI  30
MIDLAND        CLOUDY    38  22  53 NW10G17   29.87R WCI  31
TROY           LGT RAIN  43  38  83 SW14      29.88R
SAGINAW HB     MOCLDY    37  27  65 W12       29.86R WCI  30
$$
MIZ043>046-050>051-056>058-064>065-071>073-077>080-220000-
SOUTHWEST LOWER MICHIGAN

CITY           SKY/WX    TMP DP  RH WIND       PRES   REMARKS
BATTLE CREEK   CLOUDY    37  29  72 NW16      29.93R WCI  28
BENTON HARBOR  CLOUDY    37  23  56 NW10G22   29.99R WCI  30
BIG RAPIDS     CLOUDY    33  21  62 N13G21    29.91R WCI  24
COLDWATER      CLOUDY    37  37  99 W9        29.92R WCI  30
FREMONT        CLOUDY    34  23  64 NW15G21   29.94R WCI  24
HOLLAND        CLOUDY    37  25  61 NW12      29.97R WCI  29
GRAND RAPIDS   CLOUDY    36  27  69 W10       29.93R WCI  28
IONIA          MOCLDY    37  26  65 W10G16    29.90R WCI  29
KALAMAZOO      CLOUDY    37  26  64 NW18G24   29.95R WCI  27
LUDINGTON      CLOUDY    33  19  57 NW13G18   29.96R WCI  24
MARSHALL       CLOUDY    37  31  79 W10       29.91R WCI  29
MOUNT PLEASANT CLOUDY    38  21  50 W8G22     29.89R WCI  32
MUSKEGON       CLOUDY    36  22  56 NW15G24   29.96R WCI  27
SOUTH HAVEN    CLOUDY    37  25  60 NW14G23   29.98R WCI  28
$$
MIZ016>042-220000-
NORTHERN LOWER MICHIGAN

CITY           SKY/WX    TMP DP  RH WIND       PRES   REMARKS
ALPENA         CLOUDY    33  23  66 NW9       29.85R WCI  25
BEAVER ISLAND  CLOUDY    29  21  71 NW15G26   29.93R WCI  18
BELLAIRE       CLOUDY    31  24  73 NW10G21   29.93R WCI  23
CADILLAC       CLOUDY    30  21  68 NW14      29.89R WCI  19
CHARLEVOIX     CLOUDY    31  22  66 NW21G30   29.95R WCI  19
FRANKFORT      CLOUDY    32  21  62 NW9G20    29.97R WCI  25
GAYLORD        FLURRIES  27  18  69 NW10G24   29.86R WCI  17
GRAYLING       CLOUDY    30  20  65 NW9G22    29.88R WCI  22
HARBOR SPRINGS CLOUDY    30  21  68 NW13G25   29.90R WCI  20
HOUGHTON LAKE  FLURRIES  31  20  63 NW15G25   29.88R WCI  20
OSCODA         CLOUDY    35  20  55 NW14G24   29.85R WCI  26
PELLSTON       MIX PCPN  30  20  66 NW22G31   29.89R WCI  17
ROGERS CITY    CLOUDY    32  20  62 W16G28    29.85R WCI  21
TRAVERSE CITY  FLURRIES  32  18  56 NW15      29.94R WCI  22
$$
MIZ007>008-015-220000-
EASTERN UPPER MICHIGAN

CITY           SKY/WX    TMP DP  RH WIND       PRES   REMARKS
KINROSS        FLURRIES  27  20  75 NW20G28   29.82R WCI  13
MACKINAC ISLAN CLOUDY    30  19  65 NW17G28   29.87R WCI  18
NEWBERRY       CLOUDY    26  19  75 NW20G25   29.89R WCI  12
S. S. MARIE    FLURRIES  29  19  66 NW16G38   29.81R WCI  17
MUNISING         N/A     29  21  72 NW22G33   29.96R WCI  15
$$
MIZ004>006-011>014-085-220000-
CENTRAL UPPER MICHIGAN

CITY           SKY/WX    TMP DP  RH WIND       PRES   REMARKS
MANISTIQUE     FLURRIES  25  14  63 NW17G30   29.94R WCI  11
ESCANABA       CLOUDY    25  13  60 NW18G25   30.02R WCI  11
MENOMINEE      FLURRIES  27  14  58 N16G23    30.04R WCI  15
SAWYER-GWINN   FLURRIES  21  14  73 NW15G22   29.97R WCI   8
$$
MIZ001>003-009>011-084-220000-
WESTERN UPPER MICHIGAN

CITY           SKY/WX    TMP DP  RH WIND       PRES   REMARKS
IRON MOUNTAIN  FLURRIES  22   9  57 NW14G28   30.01R WCI   9
HOUGHTON       MIX PCPN  23  14  68 NW17G28   29.99R WCI   9
COPPER HARBOR    N/A     27  20  75 N26G37    29.99R WCI  12
IRONWOOD       CLOUDY    21  12  68 NW14G24   30.08R WCI   8
$$

ABBREVIATIONS USED IN REMARKS
   TC - TEMPERATURE IN CELSIUS
  WCI - WIND CHILL INDEX
   HX - HEAT INDEX
  VSB - VISIBILITY





USA.gov is the U.S. government's official web portal to all federal, state and local government web resources and services.